This is the latest recevied weather packets stored in our database for station/object N1KM-15. If no packets are shown the sender has not sent any weather packets the latest 10 day(s).
| Time | Temp. | Humidity | Pressure | Rain* | Wind** | Luminosity | Snow |
|---|---|---|---|---|---|---|---|
| 1777709700 | 8.89° C | 75% | 1010 hPa | 0 mm | - | - | - |
| 1777708800 | 8.89° C | 75% | 1009.9 hPa | 0 mm | - | - | - |
| 1777707900 | 8.33° C | 77% | 1010.1 hPa | 0 mm | - | - | - |
| 1777707000 | 8.33° C | 78% | 1010 hPa | 0 mm | - | - | - |
| 1777706100 | 8.33° C | 79% | 1010.2 hPa | 0 mm | - | - | - |
| 1777705200 | 8.89° C | 77% | 1010 hPa | 0 mm | - | - | - |
| 1777704300 | 8.89° C | 75% | 1010 hPa | 0 mm | - | - | - |
| 1777703400 | 8.89° C | 76% | 1010.2 hPa | 0 mm | - | - | - |
| 1777702500 | 8.89° C | 78% | 1010.1 hPa | 0 mm | - | - | - |
| 1777701600 | 8.89° C | 78% | 1010.2 hPa | 0 mm | - | - | - |
| 1777700700 | 9.44° C | 77% | 1010.2 hPa | 0 mm | - | - | - |
| 1777699800 | 8.89° C | 76% | 1010.4 hPa | 0 mm | - | - | - |
| 1777698900 | 8.89° C | 74% | 1010.5 hPa | 0 mm | - | - | - |
| 1777698000 | 8.33° C | 75% | 1010.5 hPa | 0 mm | - | - | - |
| 1777697100 | 8.89° C | 75% | 1010.6 hPa | 0 mm | - | - | - |
| 1777696200 | 8.89° C | 75% | 1010.5 hPa | 0 mm | - | - | - |
| 1777695300 | 8.89° C | 75% | 1010.7 hPa | 0 mm | - | - | - |
| 1777694400 | 8.89° C | 75% | 1010.6 hPa | 0 mm | - | - | - |
| 1777693500 | 8.89° C | 76% | 1010.7 hPa | 0 mm | - | - | - |
| 1777692600 | 9.44° C | 75% | 1010.8 hPa | 0 mm | - | - | - |
| 1777691700 | 9.44° C | 73% | 1010.5 hPa | 0 mm | - | - | - |
| 1777690800 | 10° C | 70% | 1010.6 hPa | 0 mm | - | - | - |
| 1777689900 | 10.56° C | 69% | 1010.3 hPa | 0 mm | - | - | - |
| 1777689000 | 10° C | 70% | 1010.3 hPa | 0 mm | - | - | - |
| 1777688100 | 10.56° C | 71% | 1010.4 hPa | 0 mm | - | - | - |
* Rain since midnight (hover to see other rain measurements)
** Current wind speed in m/s (hover to see current wind gust speed)